Location: Dötzum
(52.0808°N, 9.8063°E)
Time: 07:04:03
(UTC+00:00)

Cosmos 2237 Rocket - Pass Details

Date: 27 May 2022
Orbit: 833 x 851 km, 71.0° (Epoch: 28 June)

Event Time Altitude Azimuth Distance (km) Brightness Sun altitude
Exits shadow 00:57:00 17° 223° (SW) 1,992 3.6 -13.5°
Maximum altitude 01:01:22 68° 304° (NW) 916 2.4 -13.3°
Drops below altitude 10° 01:07:04 10° 28° (NNE) 2,489 6.2 -12.9°
Sets 01:09:33 0° 31° (NNE) 3,429 7.4 -12.7°
